Location: Albany
(35.0170°S, 117.8920°E)
Time: 00:48:18
(UTC+08:00)

S-56A Canister/Altair - Pass Details

Date: 24 June 2021
Orbit: 632 x 2501 km, 38.9° (Epoch: 24 July)

Event Time Altitude Azimuth Distance (km) Brightness Sun altitude
Rises 21:20:24 0° 248° (WSW) 6,144 12.7 -51.3°
Reaches altitude 10° 21:24:53 10° 253° (WSW) 5,019 12.1 -52.2°
Enters shadow 21:35:07 39° 293° (WNW) 2,820 10.4 -54.3°
